Location: *
(51.2167°N, 10.0667°E)
Time: 20:03:01
(UTC+00:00)

Exosat Rocket - Pass Details

Date: 12 December 2019
Orbit: 760 x 2515 km, 72.3° (Epoch: 28 January)

Event Time Altitude Azimuth Distance (km) Brightness Sun altitude
Rises 15:47:53 0° 182° (S) 3,418 7.4 -5.5°
Reaches altitude 10° 15:50:31 10° 175° (S) 2,379 6.4 -5.8°
Maximum altitude 15:55:15 39° 107° (ESE) 1,142 4.1 -6.5°
Drops below altitude 10° 15:59:57 10° 40° (NE) 2,354 5.4 -7.1°
Enters shadow 16:00:58 - 36° (NE) 2,750 5.8 -7.3°
